Home   Weather   Ocala   Past weeks

Flag for USA Past Weather in Ocala, Florida, USA — Yesterday and Last 2 Weeks

Now
82 °F

Scattered clouds.


Feels Like: 82 °F
Forecast: 61 / 83 °F
Wind: 18 mph from Southwest

Location: Ocala Municipal

Current Time: Jan 21, 2017 at 2:48:18 pm

Latest Report: Jan 21, 2017 at 1:50 pm


Visibility: 10 mi

Pressure: 29.82 "Hg

Humidity: 42%

Dew Point: 57 °F

Location of OcalaLocation

Past Weather in Ocala — Graph

°F

Ocala Temperature Yesterday

Maximum temperature yesterday: 81 °F (at 12:50 pm)
Minimum temperature yesterday: 55 °F (at 1:55 am)
Average temperature yesterday: 65 °F

High & Low Weather Summary for the Past Weeks

 TemperatureHumidityPressure
High82 °F (Jan 21, 12:50 pm)94% (Jan 6, 10:55 pm)30.65 "Hg (Jan 6, 10:55 pm)
Low28 °F (Jan 8, 6:15 am)32% (Jan 8, 1:50 pm)29.87 "Hg (Jan 7, 3:35 am)
Average60 °F73%30.26 "Hg
* Reported Jan 6 12:50 pm — Jan 21 12:50 pm, Ocala, Weather by CustomWeather, © 2017

Note: Actual official high and low records may vary slightly from our data, if they occured in-between our weather recording intervals... More about our weather records

Advertising

Ocala Weather History for the Previous 24 Hours

Scroll right to see more
 ConditionsComfort  
Time TempWeatherWind HumidityBarometerVisibility
12:50 pm
Sat, Jan 21
82 °FScattered clouds.17 mph42%29.87 "Hg10 mi
11:50 am79 °FSunny.17 mph48%29.91 "Hg10 mi
10:50 am79 °FSunny.17 mph48%29.93 "Hg10 mi
9:50 am72 °FSunny.12 mph69%29.93 "Hg10 mi
8:50 am64 °FFog.9 mph94%29.94 "Hg5 mi
7:50 am63 °FFog.5 mph94%29.93 "Hg2 mi
6:55 am63 °FLow clouds.6 mph94%29.92 "Hg1 mi
6:15 am63 °FLow clouds.5 mph88%29.92 "Hg0 mi
5:55 am63 °FLow clouds.5 mph88%29.91 "Hg0 mi
5:35 am61 °FLow clouds.5 mph88%29.92 "Hg0 mi
4:55 am59 °FLow clouds.No wind88%29.92 "Hg0 mi
4:15 am61 °FClear.No wind88%29.94 "Hg1 mi
3:55 am61 °FClear.3 mph88%29.95 "Hg2 mi
3:35 am59 °FDense fog.No wind94%29.95 "Hg1 mi
2:55 am61 °FClear.No wind88%29.96 "Hg1 mi
2:15 am63 °FClear.No wind88%29.96 "Hg5 mi
1:35 am63 °FClear.6 mph94%29.96 "Hg8 mi
12:55 am63 °FClear.7 mph94%29.97 "Hg10 mi
12:35 am63 °FClear.5 mph94%29.97 "Hg10 mi
11:55 pm
Fri, Jan 20
64 °FClear.3 mph88%29.98 "Hg9 mi
11:15 pm64 °FClear.6 mph88%29.98 "Hg10 mi
10:55 pm64 °FClear.5 mph88%29.97 "Hg10 mi
10:35 pm64 °FClear.5 mph88%29.97 "Hg10 mi
9:55 pm64 °FClear.6 mph88%29.97 "Hg10 mi
9:15 pm64 °FClear.No wind88%29.97 "Hg10 mi
8:55 pm66 °FClear.No wind83%29.97 "Hg10 mi
8:35 pm66 °FClear.No wind83%29.97 "Hg10 mi
6:50 pm70 °FClear.5 mph78%29.95 "Hg10 mi
5:50 pm75 °FSunny.9 mph65%29.94 "Hg10 mi
4:50 pm79 °FSunny.12 mph54%29.93 "Hg10 mi
3:50 pm81 °FScattered clouds.12 mph54%29.92 "Hg10 mi
2:50 pm81 °FSunny.12 mph51%29.91 "Hg10 mi
Weather by CustomWeather, © 2017

See weather overviewHow to use our weather pages